Weather History for KCNM - September, 2013

Change the Weather History Date:

Sunday, September 29, 2013

  Actual Average Record
Temperature  
Mean Temperature 65 °F -  
Max Temperature 82 °F 82 °F 102 °F (1977)
Min Temperature 48 °F 54 °F 43 °F (1984)
Growing Degree Days 15 (Base 50)    
Moisture  
Dew Point 44 °F    
Average Humidity 53    
Maximum Humidity 86    
Minimum Humidity 16    
Precipitation  
Precipitation 0.00 in - - ()
Sea Level Pressure  
Sea Level Pressure 29.99 in    
Wind  
Wind Speed 6 mph (SW)    
Max Wind Speed 10 mph    
Max Gust Speed -    
Visibility 10 miles    
Events      
Averages and records for this station are not official NWS values.
T = Trace of Precipitation, MM = Missing Value Source: NWS Daily Summary

Daily Weather History Graph

Daily Weather History Graph

Search for Another Location

Airport or City:

Trip Planner

Search our weather history database for the weather conditions in past years. The results will help you decide how hot, cold, wet, or windy it might be!

Date:

Astronomy

Sep. 29, 2013 Rise Set
Actual Time 6:49 AM MDT 6:44 PM MDT
Civil Twilight 6:25 AM MDT 7:08 PM MDT
Nautical Twilight 5:57 AM MDT 7:36 PM MDT
Astronomical Twilight 5:28 AM MDT 8:05 PM MDT
Moon 1:48 AM MDT (9/29) 3:27 PM MDT (9/29)
Length of Visible Light 12h 43m
Length of Day
11h 54m
Waning Crescent, 26% of the Moon is Illuminated
Sep 29
Waning Crescent
Oct 4
New
Oct 11
First Quarter
Oct 18
Full
Oct 26
Last Quarter

Hourly Weather History & Observations

Time (MDT) Temp. Dew Point Humidity Pressure Visibility Wind Dir Wind Speed Gust Speed Precip Events Conditions
12:53 AM 54.0 °F 46.0 °F 75% 30.09 in 10.0 mi West 5.8 mph - N/A   Clear
1:53 AM 53.1 °F 45.0 °F 74% 30.08 in 10.0 mi WSW 4.6 mph - N/A   Clear
2:53 AM 52.0 °F 45.0 °F 77% 30.06 in 10.0 mi West 5.8 mph - N/A   Clear
3:53 AM 51.1 °F 45.0 °F 80% 30.06 in 10.0 mi NW 5.8 mph - N/A   Clear
4:53 AM 51.1 °F 44.1 °F 77% 30.07 in 10.0 mi Calm Calm - N/A   Clear
5:53 AM 48.9 °F 44.1 °F 83% 30.07 in 10.0 mi West 3.5 mph - N/A   Clear
6:53 AM 48.0 °F 44.1 °F 86% 30.10 in 10.0 mi West 4.6 mph - N/A   Clear
7:53 AM 55.9 °F 46.9 °F 72% 30.10 in 10.0 mi Calm Calm - N/A   Clear
8:53 AM 62.1 °F 46.0 °F 56% 30.10 in 10.0 mi SE 5.8 mph - N/A   Clear
9:53 AM 69.1 °F 48.0 °F 47% 30.08 in 10.0 mi South 10.4 mph - N/A   Clear
10:53 AM 73.0 °F 48.9 °F 42% 30.06 in 10.0 mi South 9.2 mph - N/A   Clear
11:53 AM 75.9 °F 48.0 °F 37% 30.03 in 10.0 mi South 8.1 mph - N/A   Clear
12:53 PM 77.0 °F 46.9 °F 34% 30.00 in 10.0 mi North - - N/A   Clear
1:53 PM 80.1 °F 45.0 °F 29% 29.94 in 10.0 mi WSW 6.9 mph - N/A   Clear
2:53 PM 82.0 °F 44.1 °F 26% 29.91 in 10.0 mi West 8.1 mph - N/A   Clear
3:53 PM 82.9 °F 32.0 °F 16% 29.89 in 10.0 mi Variable 4.6 mph - N/A   Clear
4:53 PM 82.9 °F 37.0 °F 19% 29.88 in 10.0 mi Variable 3.5 mph - N/A   Clear
5:53 PM 80.1 °F 42.1 °F 26% 29.88 in 10.0 mi SSW 5.8 mph - N/A   Clear
6:53 PM 73.0 °F 43.0 °F 34% 29.89 in 10.0 mi South 6.9 mph - N/A   Clear
7:53 PM 63.0 °F 46.0 °F 54% 29.89 in 10.0 mi SSW 10.4 mph - N/A   Clear
8:53 PM 62.1 °F 46.0 °F 56% 29.91 in 10.0 mi West 9.2 mph - N/A   Clear
9:53 PM 61.0 °F 45.0 °F 56% 29.91 in 10.0 mi WSW 10.4 mph - N/A   Clear
10:53 PM 60.1 °F 42.1 °F 51% 29.89 in 10.0 mi SW 6.9 mph - N/A   Clear
11:53 PM 55.9 °F 41.0 °F 57% 29.88 in 10.0 mi WSW 9.2 mph - N/A   Clear